Starlink 3226

operational
NORAD ID: 49740 Int'l Des: 2021-115 Owner: SPXS Country: US Constellation: starlink
LEOCIRCULAR

Über Starlink 3226

Beschreibung wird geladen...

Live-Position

3D-Globus wird geladen...

Nächste Überflüge

Höhenverlauf

Altitude vs Time

uPlot chart will show altitude changes over time

Zweizeiliger Elementsatz

1 49740U 21115S 25258.15092584 .00000810 00000-0 68976-4 0 9999
2 49740 53.2173 217.1183 0001490 84.5049 275.6113 15.08844162209032
Epoch: 15. Sept. 2025 • Age: 17 hours

Aktueller Status

Höhe 554.3 km
Geschwindigkeit 7.58 km/s
Subsatellitenpunkt -41.21°S, 131.17°E
Startdatum 2. Dez. 2021
Alter 3.7 years
Typ internet

Technische Details

Klassifizierung Payload
Masse 290.00 kg
Trockenmasse 270.00 kg
Gesamtmasse 290.00 kg
Länge 0.20 m
Durchmesser 2.80 m
Spannweite 9.00 m
Form Box + pan
Hersteller SPXS
Bus-Typ Starlink
Phasenstatus In Orbit
Besitzer/Staat SPXS/US

Große Konstellationen

Loading constellations...